Regional Weather Roundup
Issued by NWS

Home | Current Version | Previous Version | Text Only | Print | Product List | Glossary On
Versions: 1 2 3 4 5 6 7 8 9 10 11 12 13 14 15 16 17 18 19 20 21 22 23 24 25 26 27 28 29 30 31 32 33 34 35 36 37 38 39 40 41 42 43 44 45 46 47 48 49 50
000
ASHW40 PHFO 270812
RWRHI

WEATHER ROUNDUP FOR HAWAII
NATIONAL WEATHER SERVICE HONOLULU HI
1000 PM HST THU MAY 26 2016

THIS IS AN AUTOMATED REPORT THAT HAS NOT BEEN QUALITY CONTROLLED.

NOTE..."FAIR" INDICATES FEW OR NO CLOUDS BELOW 12,000 FEET WITH NO
SIGNIFICANT WEATHER AND/OR OBSTRUCTIONS TO VISIBILITY.

* - THESE SITES REPORT LIMITED FIELDS

HIZ001>004-270900-
KAUAI-NIIHAU-

CITY           SKY/WX    TMP DP  RH WIND       PRES   REMARKS
LIHUE APT      MOCLDY    75  70  84 E13       30.12R
PORT ALLEN*      N/A     75 N/A N/A NE9         N/A
POIPU*           N/A     77 N/A N/A NE7         N/A
PRINCEVILLE*     N/A     73 N/A N/A SE5         N/A
KOKOLE POINT*  NOT AVBL
MOLOAA DAIRY*    N/A     75  70  83 SE7         N/A
WAIMEA HTS*    NOT AVBL
PUU OPAE*      NOT AVBL
PUU LUA*       NOT AVBL
MAKAHA RIDGE*  NOT AVBL
$$

HIZ005>011-270900-
OAHU-

CITY           SKY/WX    TMP DP  RH WIND       PRES   REMARKS
HONOLULU       PTCLDY    75  70  84 NE6       30.10R
KALAELOA       MOCLDY    75  70  84 NE3       30.12R
KANEOHE MCB    PTCLDY    77  70  79 VRB6      30.09R
WHEELER FIELD  FAIR      71  70  95 VRB3      30.11
BELLOWS*       NOT AVBL
KAHUKU*        NOT AVBL
WHEELER*       NOT AVBL
WAIANAE HARBOR NOT AVBL
DILLINGHAM*      N/A     82  79  89 MISG        N/A  HX  93
KAHUKU TRN*      N/A     73  70  88 CALM        N/A
KAWAILOA*        N/A     70  66  88 E7G13       N/A
KII*             N/A     77  72  83 E15G21      N/A
MAKUA RANGE*     N/A     72  68  88 E5          N/A
OAHU FOREST NW NOT AVBL
SCHOFIELD BRK*   N/A     81  77  89 MISG        N/A
SCHOFIELD S*   NOT AVBL
WAIANAE VLY*   NOT AVBL
KUAOKALA*      NOT AVBL
HONOULIUULI*   NOT AVBL
MOKUOLOE IS*   NOT AVBL
PALEHUA*       NOT AVBL
WAIAWA PHB*    NOT AVBL
$$

HIZ012>013-270900-
MOLOKAI-

CITY           SKY/WX    TMP DP  RH WIND       PRES   REMARKS
MOLOKAI AIRPT  PTCLDY    72  66  81 CALM      30.12R
KALAUPAPA      NOT AVBL
MAKAPULAPAI*   NOT AVBL
MOLOKAI 1*     NOT AVBL
PUU ALII*      NOT AVBL
$$

HIZ016-270900-
KAHOOLAWE-

CITY           SKY/WX    TMP DP  RH WIND       PRES   REMARKS
KAHOOLAWE*     NOT AVBL
HAKIOAWA*      NOT AVBL
HONOKANAIA*      N/A     78  69  73 NE14G29   30.03R
KANELOA*         N/A     73  68  83 E17G29    30.16R
KEALIALALO*    NOT AVBL
LUA MAKIKA*    NOT AVBL
$$

HIZ014>015-270900-
LANAI-

CITY           SKY/WX    TMP DP  RH WIND       PRES   REMARKS
LANAI CITY     FAIR      68  66  93 CALM      30.16R
LANAI 1*       NOT AVBL
$$

HIZ017>028-270900-
MAUI-

CITY           SKY/WX    TMP DP  RH WIND       PRES   REMARKS
KAHULUI        PTCLDY    75  65  70 E5        30.09R
KAPALUA-W MAUI NOT AVBL
HANA AIRPORT   NOT AVBL
HANA*            N/A     73 N/A N/A S3          N/A
HALEAKALA SUMM   N/A     45  10  24 NE9         N/A
MAALAEA BAY*   NOT AVBL
HALEAKALA*     NOT AVBL
KAUPO GAP*     NOT AVBL
KULA 1*          N/A     51  45  80 E3          N/A
$$

HIZ023>026-270900-
BIG ISLAND OF HAWAII COAST AND LOWER SLOPES-

CITY           SKY/WX    TMP DP  RH WIND       PRES   REMARKS
KAILUA KONA    PTCLDY    77  71  82 SE6       30.07R
HILO           CLOUDY    74  69  85 SW3       30.13R
HONOKAA*         N/A     68 N/A N/A VRB1        N/A
KAWAIHAE MWT*    N/A     79 N/A N/A NE7         N/A
KAWAIHAE*      NOT AVBL
SOUTH POINT*     N/A     72 N/A N/A N17G26      N/A
UPOLU AIRPORT*   N/A    N/A N/A N/A NE17G25     N/A
KAMUELA*       SUNNY     64  59  82 NE12      30.19S
HAKALAU*         N/A     50  50  99 S3          N/A
KALOKO-HONOKO* NOT AVBL
PALI 2*          N/A     64  59  82 S10G18      N/A
KEALAKOMO*       N/A     75  64  69 NE10G18     N/A
KAUPULEHU*     NOT AVBL
KAPAPALA*        N/A     63  61  92 N3          N/A
LOWER KAHUKU*  NOT AVBL
PUHE CS*       NOT AVBL
PUHO CS*       NOT AVBL
PTA KEAMUKU*     N/A    N/A N/A N/A CALM        N/A
WAIKOLOA*      NOT AVBL
$$

HIZ027>028-270900-
BIG ISLAND OF HAWAII INTERIOR AND SUMMMITS-

CITY           SKY/WX    TMP DP  RH WIND       PRES   REMARKS
BRADSHAW FIELD PTCLDY    53  49  85 SE2       30.40R
MK VISITOR CEN   N/A     46  36  66 N2          N/A
MAUNA KEA*       N/A     34  -6  18 N18         N/A  WCI  23
MAUNA LOA*     NOT AVBL
MAUNA LOA 1*   NOT AVBL
PTA KIPUKA*      N/A     66  66 100 E3          N/A
PTA RANGE 17*    N/A     64  59  82 E9G15       N/A
PTA WEST*        N/A     66  64  94 E5          N/A
NENE CABIN*    NOT AVBL
AHUMOA*        NOT AVBL
PTA PORTABLE*  NOT AVBL
PUU MALI*        N/A     54  34  47 SE5         N/A
$$

HIC003-270900-
NORTHWEST ISLANDS-

CITY           SKY/WX    TMP DP  RH WIND       PRES   REMARKS
MIDWAY ISLAND  PTCLDY    73  72  94 NE5       30.11R
MIDWAY NOS*    NOT AVBL
FRENCH FRIGATE NOT AVBL
$$

PHZ110>124-180-270900-
BUOY REPORTS

STATION/POSITION TIME  TEMP    WIND        PRES    WAVE   SWELL
                       AIR SEA DIR/SP/G            HT/PER HT/DIR
                 (UTC) (F)     (DEG/KT/KT) (MB)    (FT/S) (FT/D)
BUOY 51001       0700   78 80   60/ 12/ 16 1017.6R
BUOY 51101       0750   77 78   90/  8/ 10 1019.5R   4/ 8   5/ 30
BUOY 51100       NOT AVBL
BUOY 51002       0750   78 79  100/ 16/ 17 1017.7R   6/ 7   3/180
BUOY 51003       0750   78 80  110/  8/ 10 1018.3R   4/17   3/180
BUOY 51004       0750   76 79   50/ 12/ 14 1018.7R   6/ 8   5/ 70
BARBERS PT BUOY  NOT AVBL
WAIMEA BAY BUOY  0704      78                N/A     3/ 8
KAILUA BAY BUOY  0711      78                N/A     4/ 5   2/120
LANAI BUOY       0715      79                N/A     2/18   2/210
BARBERS PT 2     0703      80                N/A     3/18   2/210
PAUWELA MAUI     0709      78                N/A     4/ 8
HILO             0712      79                N/A     5/ 7
KANEOHE BAY BUOY 0706      78                N/A     3/ 6
HANALEI KAUAI    NOT AVBL
KAHULUI HARBOR   0700   77 80   40/ 14/ 17 1018.5R
HONOLULU HARBOR  0700   76 80  100/  2/  4 1019.8R
KILO NALU        NOT AVBL
HILO HARBOR      0700   74 78  240/  4/  5 1019.8R
MOKUOLOE         0700   78 80  110/ 11/ 14 1019.3R
NAWILIWILI       0700   77 82   80/ 13/ 14 1019.1R
WHOTS BUOY       NOT AVBL
BUOY 51028       NOT AVBL
$$

......................KEY........................................
  SKY/WX - SKY CONDITIONS/PRESENT WEATHER
  TMP    - TEMPERATURE IN FAHRENHEIT
  DWPT   - DEWPOINT IN FAHRENHEIT
  RH     - RELATIVE HUMIDITY IN PERCENT
  WIND   - DIRECTION AND SPEED /MPH FOR ISLANDS...KTS FOR BUOYS/
  PRES   - MEAN SEA LEVEL PRESSURE IN INCHES OF HG
  VSB    - VISIBILITY IN MILES
  HX     - HEAT INDEX
  WCI    - WIND CHILL INDEX
  VRB    - VARIABLE WIND DIRECTION
  N/A    - NOT AVAILABLE



USA.gov is the U.S. government's official web portal to all federal, state and local government web resources and services.